This demonstration page uses our WeatherBlox Daily Observations layout. Learn more.

Left ArrowRight Arrow

40.92501, -98.34201

Hourly Observations for August 2, 2020

Temp ( °F °C ) Dew Point ( °F °C ) Humidity (%) Winds ( mph kmh ) Pressure ( in mb ) Visibility ( mi km ) Precip ( " mm )
12:53 am 00:53 Clear 65 18.3 57 13.9 76 76 NNW 9 15 30.07 1018 10 16 0.00 0.00
1:53 am 01:53 Clear 64 17.8 56 13.3 75 75 NNW 10 17 30.07 1018 10 16 0.00 0.00
2:53 am 02:53 Clear 61 16.1 55 12.8 81 81 NW 8 13 30.08 1019 10 16 0.00 0.00
3:53 am 03:53 Clear 61 16.1 55 12.8 81 81 NW 7 11 30.08 1019 10 16 0.00 0.00
4:53 am 04:53 Clear 59 15 54 12.2 83 83 NW 7 11 30.08 1019 10 16 0.00 0.00
5:53 am 05:53 Clear 58 14.4 54 12.2 87 87 NW 6 9 30.09 1019 10 16 0.00 0.00
6:53 am 06:53 Sunny 59 15 53 11.7 81 81 NNW 8 13 30.11 1020 10 16 0.00 0.00
7:53 am 07:53 Sunny 61 16.1 55 12.8 81 81 NW 10 17 30.11 1020 10 16 0.00 0.00
8:53 am 08:53 Sunny 66 18.9 56 13.3 70 70 NNW 9 15 30.11 1020 10 16 0.00 0.00
9:53 am 09:53 Sunny 71 21.7 56 13.3 59 59 NNW 14 22 30.12 1020 10 16 0.00 0.00
10:53 am 10:53 Sunny 74 23.3 56 13.3 54 54 N 14 22 30.13 1020 10 16 0.00 0.00
11:53 am 11:53 Mostly Sunny 75 23.9 56 13.3 52 52 N 16 26 30.14 1021 10 16 0.00 0.00
12:53 pm 12:53 Mostly Sunny 77 25 55 12.8 47 47 N 12 19 30.13 1020 10 16 0.00 0.00
1:53 pm 13:53 Mostly Sunny 78 25.6 55 12.8 45 45 N 13 20 30.11 1020 10 16 0.00 0.00
2:53 pm 14:53 Mostly Sunny 79 26.1 56 13.3 45 45 NNE 16 26 30.11 1020 10 16 0.00 0.00
3:53 pm 15:53 Partly Cloudy 79 26.1 54 12.2 42 42 NNE 9 15 30.10 1019 10 16 0.00 0.00
4:53 pm 16:53 Sunny 80 26.7 54 12.2 41 41 NNE 10 17 30.09 1019 10 16 0.00 0.00
5:53 pm 17:53 Partly Cloudy 77 25 55 12.8 47 47 NNE 10 17 30.10 1019 10 16 0.00 0.00
6:53 pm 18:53 Sunny 77 25 55 12.8 47 47 NNE 8 13 30.10 1019 10 16 0.00 0.00
7:53 pm 19:53 Sunny 73 22.8 55 12.8 53 53 NNE 7 11 30.10 1019 10 16 0.00 0.00
8:53 pm 20:53 Clear 67 19.4 58 14.4 73 73 N 5 7 30.11 1020 10 16 0.00 0.00
9:53 pm 21:53 Clear 65 18.3 57 13.9 76 76 N 6 9 30.11 1020 10 16 0.00 0.00
10:53 pm 22:53 Clear 63 17.2 55 12.8 76 76 N 7 11 30.13 1020 10 16 0.00 0.00
11:53 pm 23:53 Clear 63 17.2 55 12.8 76 76 Calm 30.15 1021 10 16 0.00 0.00

Powered by AerisWeather